AUA281 LOWW-LICC

Flight info

Callsign AUA281
Flight time 1h 46m
Altitude 30000
Route RUPET DCT GRZ/N0440F380 DCT DARZA/N0441F390 DCT XAMIT DCT SOR DCT PELEN Q789 UXUTA
Aircraft A20N/M-SDE2E3FGHIRWXY/LB1

Departure

Time 2026-05-08 07:31
Airport Vienna International Airport (LOWW)

Arrival

Time 2026-05-08 09:17
Airport Catania-Fontanarossa Airport (LICC)
Time Latitude Longitude Altitude Speed Heading
2026-05-08 07:13 48.11842 16.56929 618 ft 0 kts 206°
2026-05-08 07:21 48.11843 16.56929 609 ft 2 kts 206°
2026-05-08 07:21 48.11856 16.56939 627 ft 2 kts 206°
2026-05-08 07:22 48.11869 16.56949 625 ft 2 kts 206°
2026-05-08 07:22 48.11883 16.56959 617 ft 2 kts 199°
2026-05-08 07:22 48.11897 16.56964 622 ft 2 kts 184°
2026-05-08 07:22 48.11912 16.56964 625 ft 2 kts 169°
2026-05-08 07:23 48.11927 16.56959 620 ft 2 kts 154°
2026-05-08 07:23 48.11944 16.56940 625 ft 3 kts 124°
2026-05-08 07:23 48.11949 16.56929 625 ft 0 kts 112°
2026-05-08 07:24 48.11946 16.56939 625 ft 3 kts 112°
2026-05-08 07:24 48.11931 16.56979 613 ft 7 kts 121°
2026-05-08 07:25 48.11900 16.57067 614 ft 12 kts 117°
2026-05-08 07:25 48.11859 16.57193 609 ft 15 kts 114°
2026-05-08 07:25 48.11747 16.57494 617 ft 18 kts 152°
2026-05-08 07:26 48.11617 16.57552 621 ft 21 kts 163°
2026-05-08 07:26 48.11471 16.57614 620 ft 23 kts 164°
2026-05-08 07:26 48.11312 16.57682 616 ft 25 kts 164°
2026-05-08 07:26 48.11138 16.57753 613 ft 27 kts 165°
2026-05-08 07:27 48.10954 16.57831 619 ft 28 kts 163°
2026-05-08 07:27 48.10761 16.57915 612 ft 29 kts 164°
2026-05-08 07:27 48.10565 16.57996 615 ft 30 kts 165°
2026-05-08 07:27 48.10369 16.58073 622 ft 27 kts 165°
2026-05-08 07:28 48.10187 16.58153 619 ft 28 kts 162°
2026-05-08 07:28 48.09998 16.58238 622 ft 28 kts 165°
2026-05-08 07:28 48.09804 16.58321 618 ft 30 kts 163°
2026-05-08 07:28 48.09602 16.58409 621 ft 31 kts 165°
2026-05-08 07:29 48.09390 16.58487 611 ft 32 kts 166°
2026-05-08 07:29 48.09173 16.58579 620 ft 33 kts 164°
2026-05-08 07:29 48.08990 16.58659 618 ft 15 kts 156°
2026-05-08 07:29 48.08928 16.58786 615 ft 16 kts 97°
2026-05-08 07:30 48.08942 16.58959 622 ft 18 kts 62°
2026-05-08 07:30 48.09049 16.59049 609 ft 19 kts
2026-05-08 07:30 48.09147 16.59013 611 ft 0 kts 343°
2026-05-08 07:30 48.09187 16.58995 619 ft 31 kts 343°
2026-05-08 07:31 48.09688 16.58779 613 ft 115 kts 343°
2026-05-08 07:31 48.10663 16.58376 734 ft 168 kts 343°
2026-05-08 07:31 48.11853 16.57877 1378 ft 185 kts 343°
2026-05-08 07:31 48.13129 16.57326 2287 ft 193 kts 344°
2026-05-08 07:32 48.14415 16.56694 3146 ft 199 kts 332°
2026-05-08 07:32 48.15469 16.55338 3916 ft 204 kts 306°
2026-05-08 07:32 48.15941 16.53340 4760 ft 208 kts 275°
2026-05-08 07:32 48.15622 16.51230 5633 ft 213 kts 243°
2026-05-08 07:33 48.14562 16.49656 6430 ft 223 kts 210°
2026-05-08 07:33 48.13067 16.48986 7238 ft 227 kts 195°
2026-05-08 07:33 48.11516 16.48478 8027 ft 229 kts 195°
2026-05-08 07:33 48.09956 16.47972 8836 ft 230 kts 195°
2026-05-08 07:34 48.08397 16.47411 9624 ft 231 kts 202°
2026-05-08 07:34 48.06970 16.46297 10365 ft 231 kts 221°
2026-05-08 07:34 48.05729 16.44685 10941 ft 247 kts 225°
2026-05-08 07:34 48.04390 16.42897 11319 ft 269 kts 224°
2026-05-08 07:35 48.02924 16.40960 11678 ft 293 kts 224°
2026-05-08 07:35 48.01335 16.38877 12001 ft 315 kts 223°
2026-05-08 07:35 47.99653 16.36682 12654 ft 324 kts 223°
2026-05-08 07:35 47.97944 16.34452 13521 ft 328 kts 224°
2026-05-08 07:36 47.96418 16.31917 14295 ft 330 kts 236°
2026-05-08 07:36 47.95275 16.28945 15064 ft 331 kts 248°
2026-05-08 07:36 47.94488 16.25795 15792 ft 334 kts 251°
2026-05-08 07:36 47.93679 16.22437 16575 ft 337 kts 251°
2026-05-08 07:37 47.92876 16.19137 17322 ft 341 kts 251°
2026-05-08 07:37 47.92059 16.15804 18047 ft 344 kts 250°
2026-05-08 07:37 47.91228 16.12431 18718 ft 348 kts 250°
2026-05-08 07:37 47.90392 16.09041 19375 ft 350 kts 250°
2026-05-08 07:38 47.89547 16.05623 20015 ft 353 kts 250°
2026-05-08 07:38 47.88696 16.02182 20641 ft 356 kts 251°
2026-05-08 07:38 47.87617 15.98853 21271 ft 360 kts 237°
2026-05-08 07:38 47.85920 15.96090 21883 ft 367 kts 220°
2026-05-08 07:39 47.83687 15.94179 22446 ft 376 kts 205°
2026-05-08 07:39 47.81227 15.92785 22995 ft 380 kts 204°
2026-05-08 07:39 47.78743 15.91396 23599 ft 383 kts 204°
2026-05-08 07:39 47.76242 15.89995 24121 ft 385 kts 204°
2026-05-08 07:40 47.73790 15.88616 24623 ft 387 kts 204°
2026-05-08 07:40 47.71213 15.87162 25155 ft 388 kts 205°
2026-05-08 07:40 47.68676 15.85728 25638 ft 391 kts 205°
2026-05-08 07:40 47.66127 15.84287 26118 ft 393 kts 205°
2026-05-08 07:41 47.63598 15.82858 26556 ft 395 kts 205°
2026-05-08 07:41 47.60991 15.81388 27055 ft 397 kts 205°
2026-05-08 07:41 47.58437 15.79952 27514 ft 398 kts 205°
2026-05-08 07:41 47.55841 15.78493 27929 ft 401 kts 205°
2026-05-08 07:42 47.53224 15.77022 28310 ft 404 kts 205°
2026-05-08 07:42 47.50596 15.75546 28794 ft 404 kts 205°
2026-05-08 07:42 47.47958 15.74066 29177 ft 407 kts 206°
2026-05-08 07:42 47.45311 15.72582 29602 ft 408 kts 206°
2026-05-08 07:43 47.42649 15.71091 29987 ft 410 kts 206°
2026-05-08 07:43 47.38169 15.68586 30093 ft 411 kts 206°
2026-05-08 07:44 47.32798 15.65582 30102 ft 424 kts 206°
2026-05-08 07:44 47.27164 15.62438 30092 ft 442 kts 205°
2026-05-08 07:45 47.21342 15.59208 30100 ft 449 kts 206°
2026-05-08 07:45 47.15509 15.55981 30103 ft 447 kts 206°
2026-05-08 07:46 47.09686 15.52763 30102 ft 447 kts 206°
2026-05-08 07:46 47.03874 15.49556 30103 ft 446 kts 206°
2026-05-08 07:47 46.98073 15.46362 30101 ft 446 kts 206°
2026-05-08 07:47 46.92062 15.43847 30101 ft 452 kts 198°
2026-05-08 07:48 46.85911 15.41965 30096 ft 452 kts 198°
2026-05-08 07:48 46.79763 15.40067 30099 ft 452 kts 198°
2026-05-08 07:49 46.73621 15.38167 30098 ft 451 kts 198°
2026-05-08 07:49 46.67480 15.36271 30097 ft 451 kts 198°
2026-05-08 07:50 46.61352 15.34385 30096 ft 451 kts 198°
2026-05-08 07:50 46.55215 15.32499 30095 ft 450 kts 198°
2026-05-08 07:51 46.49089 15.30621 30095 ft 450 kts 198°
2026-05-08 07:51 46.42998 15.28759 30097 ft 450 kts 197°
2026-05-08 07:52 46.36873 15.26891 30093 ft 449 kts 197°
2026-05-08 07:52 46.30749 15.25028 30096 ft 450 kts 197°
2026-05-08 07:53 46.24624 15.23168 30092 ft 450 kts 197°
2026-05-08 07:53 46.18487 15.21309 30093 ft 450 kts 197°
2026-05-08 07:54 46.12360 15.19456 30100 ft 451 kts 197°
2026-05-08 07:54 46.06208 15.17602 30097 ft 451 kts 197°
2026-05-08 07:55 46.00064 15.15755 30108 ft 452 kts 196°
2026-05-08 07:55 45.93906 15.13907 30100 ft 452 kts 196°
2026-05-08 07:56 45.87745 15.12063 30100 ft 452 kts 196°
2026-05-08 07:56 45.81579 15.10220 30097 ft 453 kts 196°
2026-05-08 07:57 45.75418 15.08386 30098 ft 453 kts 196°
2026-05-08 07:57 45.69252 15.06554 30097 ft 451 kts 195°
2026-05-08 07:58 45.63100 15.04729 30096 ft 452 kts 195°
2026-05-08 07:58 45.56943 15.02906 30099 ft 451 kts 195°
2026-05-08 07:59 45.50822 15.01107 30082 ft 452 kts 194°
2026-05-08 07:59 45.44539 15.00192 30099 ft 456 kts 187°
2026-05-08 08:00 45.38208 14.99582 30089 ft 456 kts 187°
2026-05-08 08:00 45.31890 14.98960 30082 ft 456 kts 187°
2026-05-08 08:01 45.25556 14.98333 30072 ft 456 kts 187°
2026-05-08 08:01 45.19203 14.97708 30063 ft 457 kts 187°
2026-05-08 08:02 45.12857 14.97084 30071 ft 458 kts 187°
2026-05-08 08:02 45.06544 14.96463 30077 ft 458 kts 187°
2026-05-08 08:03 45.00183 14.95840 30073 ft 458 kts 187°
2026-05-08 08:03 44.93820 14.95218 30071 ft 458 kts 187°
2026-05-08 08:04 44.87460 14.94598 30068 ft 458 kts 187°
2026-05-08 08:04 44.81102 14.93979 30066 ft 458 kts 187°
2026-05-08 08:05 44.74730 14.93361 30059 ft 459 kts 187°
2026-05-08 08:05 44.68360 14.92743 30057 ft 460 kts 187°
2026-05-08 08:06 44.61976 14.92127 30055 ft 460 kts 187°
2026-05-08 08:06 44.55594 14.91512 30052 ft 460 kts 187°
2026-05-08 08:07 44.49208 14.90898 30053 ft 460 kts 187°
2026-05-08 08:07 44.42833 14.90285 30047 ft 459 kts 187°
2026-05-08 08:08 44.36458 14.89675 30048 ft 458 kts 187°
2026-05-08 08:08 44.30098 14.89067 30047 ft 458 kts 186°
2026-05-08 08:09 44.23750 14.88461 30045 ft 457 kts 186°
2026-05-08 08:09 44.17402 14.87857 30044 ft 457 kts 186°
2026-05-08 08:10 44.11046 14.87254 30043 ft 458 kts 186°
2026-05-08 08:10 44.04684 14.86651 30045 ft 458 kts 187°
2026-05-08 08:11 43.98315 14.86049 30040 ft 459 kts 187°
2026-05-08 08:11 43.91939 14.85447 30040 ft 460 kts 187°
2026-05-08 08:12 43.85543 14.84845 30039 ft 461 kts 187°
2026-05-08 08:12 43.79145 14.84244 30028 ft 461 kts 187°
2026-05-08 08:13 43.72729 14.83642 30027 ft 462 kts 186°
2026-05-08 08:13 43.66311 14.83042 30030 ft 463 kts 186°
2026-05-08 08:14 43.59922 14.82445 30024 ft 463 kts 186°
2026-05-08 08:14 43.53448 14.81842 30032 ft 464 kts 186°
2026-05-08 08:15 43.47005 14.81243 30030 ft 464 kts 186°
2026-05-08 08:15 43.40606 14.80650 30028 ft 464 kts 186°
2026-05-08 08:16 43.34169 14.80054 30024 ft 464 kts 186°
2026-05-08 08:16 43.27755 14.79191 30021 ft 463 kts 189°
2026-05-08 08:17 43.21369 14.78051 30021 ft 463 kts 189°
2026-05-08 08:17 43.14989 14.76921 30019 ft 462 kts 189°
2026-05-08 08:18 43.08612 14.75797 30016 ft 462 kts 189°
2026-05-08 08:18 43.02240 14.74678 30013 ft 461 kts 189°
2026-05-08 08:19 42.95871 14.73563 30012 ft 461 kts 189°
2026-05-08 08:19 42.89509 14.72450 30007 ft 461 kts 189°
2026-05-08 08:20 42.83149 14.71340 30011 ft 461 kts 189°
2026-05-08 08:20 42.76794 14.70234 30007 ft 460 kts 189°
2026-05-08 08:21 42.70446 14.69130 30002 ft 460 kts 189°
2026-05-08 08:21 42.64096 14.68029 30001 ft 460 kts 189°
2026-05-08 08:22 42.57747 14.66930 29994 ft 460 kts 188°
2026-05-08 08:22 42.51396 14.65833 30003 ft 460 kts 188°
2026-05-08 08:23 42.45044 14.64738 29998 ft 461 kts 188°
2026-05-08 08:23 42.38671 14.63642 29997 ft 462 kts 188°
2026-05-08 08:24 42.32290 14.62547 29999 ft 463 kts 188°
2026-05-08 08:24 42.25895 14.61451 29996 ft 463 kts 188°
2026-05-08 08:25 42.19499 14.60358 29993 ft 464 kts 188°
2026-05-08 08:25 42.13094 14.59265 29992 ft 464 kts 188°
2026-05-08 08:26 42.06686 14.58173 29995 ft 464 kts 188°
2026-05-08 08:26 42.00277 14.57084 29993 ft 464 kts 187°
2026-05-08 08:27 41.93873 14.55998 29992 ft 465 kts 187°
2026-05-08 08:27 41.87454 14.54912 29995 ft 464 kts 187°
2026-05-08 08:28 41.81047 14.53830 29991 ft 464 kts 188°
2026-05-08 08:28 41.75713 14.52931 29984 ft 465 kts 188°
2026-05-08 08:29 41.69292 14.51851 29986 ft 466 kts 188°
2026-05-08 08:29 41.62863 14.50772 29988 ft 465 kts 188°
2026-05-08 08:30 41.56432 14.49693 29984 ft 466 kts 188°
2026-05-08 08:30 41.46767 14.48078 29972 ft 467 kts 188°
2026-05-08 08:31 41.40319 14.47003 29974 ft 467 kts 188°
2026-05-08 08:31 41.33871 14.45930 29969 ft 467 kts 188°
2026-05-08 08:32 41.27424 14.44860 29963 ft 467 kts 188°
2026-05-08 08:32 41.20980 14.43793 29956 ft 467 kts 188°
2026-05-08 08:33 41.14530 14.42726 29949 ft 467 kts 188°
2026-05-08 08:33 41.08097 14.41664 29961 ft 466 kts 188°
2026-05-08 08:34 41.01652 14.40601 29961 ft 466 kts 188°
2026-05-08 08:34 40.95224 14.39545 29965 ft 465 kts 188°
2026-05-08 08:35 40.88793 14.38490 29970 ft 466 kts 188°
2026-05-08 08:35 40.82360 14.37436 29966 ft 466 kts 188°
2026-05-08 08:36 40.75932 14.36385 29963 ft 465 kts 188°
2026-05-08 08:36 40.69504 14.35336 29959 ft 466 kts 188°
2026-05-08 08:37 40.63074 14.34288 29953 ft 465 kts 188°
2026-05-08 08:37 40.56618 14.33584 29948 ft 467 kts 180°
2026-05-08 08:38 40.50121 14.33935 29949 ft 467 kts 179°
2026-05-08 08:38 40.43625 14.34299 29947 ft 467 kts 179°
2026-05-08 08:39 40.37122 14.34653 29952 ft 468 kts 179°
2026-05-08 08:39 40.30622 14.35005 29952 ft 468 kts 179°
2026-05-08 08:40 40.24121 14.35357 29955 ft 468 kts 179°
2026-05-08 08:40 40.17616 14.35709 29956 ft 467 kts 179°
2026-05-08 08:41 40.11121 14.36059 29956 ft 467 kts 179°
2026-05-08 08:41 40.04675 14.36406 29958 ft 466 kts 179°
2026-05-08 08:42 39.98148 14.36757 29958 ft 466 kts 179°
2026-05-08 08:42 39.91713 14.37102 29956 ft 466 kts 179°
2026-05-08 08:43 39.85239 14.37449 29958 ft 465 kts 179°
2026-05-08 08:43 39.78769 14.37794 29956 ft 465 kts 179°
2026-05-08 08:44 39.72302 14.38140 29953 ft 466 kts 179°
2026-05-08 08:44 39.65810 14.38488 29960 ft 467 kts 180°
2026-05-08 08:45 39.59302 14.38837 29958 ft 469 kts 180°
2026-05-08 08:45 39.52780 14.39186 29958 ft 470 kts 181°
2026-05-08 08:46 39.46234 14.39535 29955 ft 471 kts 181°
2026-05-08 08:46 39.39669 14.39885 29950 ft 473 kts 182°
2026-05-08 08:47 39.33083 14.40235 29957 ft 475 kts 183°
2026-05-08 08:47 39.26474 14.40585 29955 ft 476 kts 184°
2026-05-08 08:48 39.19843 14.40937 29957 ft 477 kts 184°
2026-05-08 08:48 39.13195 14.41289 29957 ft 479 kts 185°
2026-05-08 08:49 39.06526 14.41642 29964 ft 480 kts 186°
2026-05-08 08:49 38.99842 14.41994 29955 ft 481 kts 187°
2026-05-08 08:50 38.93158 14.42342 29962 ft 481 kts 187°
2026-05-08 08:50 38.86469 14.42689 29961 ft 481 kts 187°
2026-05-08 08:51 38.79775 14.43037 29959 ft 481 kts 188°
2026-05-08 08:51 38.73088 14.43382 29962 ft 481 kts 188°
2026-05-08 08:52 38.66397 14.43723 29960 ft 481 kts 188°
2026-05-08 08:52 38.59708 14.44064 29959 ft 481 kts 188°
2026-05-08 08:53 38.53071 14.44403 29954 ft 480 kts 187°
2026-05-08 08:53 38.46442 14.44749 29900 ft 465 kts 188°
2026-05-08 08:54 38.43257 14.44924 29633 ft 451 kts 188°
2026-05-08 08:54 38.40156 14.45086 29346 ft 444 kts 188°
2026-05-08 08:54 38.37056 14.45262 29077 ft 451 kts 185°
2026-05-08 08:54 38.33909 14.45857 28805 ft 462 kts 177°
2026-05-08 08:55 38.30802 14.47030 28532 ft 470 kts 168°
2026-05-08 08:55 38.27790 14.48726 28266 ft 474 kts 163°
2026-05-08 08:55 38.24812 14.50517 27991 ft 473 kts 164°
2026-05-08 08:55 38.21846 14.52291 27724 ft 470 kts 164°
2026-05-08 08:56 38.18896 14.54044 27466 ft 467 kts 164°
2026-05-08 08:56 38.15952 14.55788 27201 ft 465 kts 164°
2026-05-08 08:56 38.13028 14.57517 26946 ft 462 kts 164°
2026-05-08 08:56 38.10119 14.59234 26689 ft 460 kts 164°
2026-05-08 08:57 38.07227 14.60939 26435 ft 458 kts 164°
2026-05-08 08:57 38.04345 14.62637 26187 ft 455 kts 164°
2026-05-08 08:57 38.01481 14.64323 25934 ft 453 kts 163°
2026-05-08 08:57 37.98634 14.65999 25695 ft 450 kts 163°
2026-05-08 08:58 37.95794 14.67632 25448 ft 444 kts 167°
2026-05-08 08:58 37.92898 14.68862 25210 ft 435 kts 174°
2026-05-08 08:58 37.89969 14.69600 24966 ft 425 kts 182°
2026-05-08 08:58 37.87065 14.69870 24716 ft 411 kts 192°
2026-05-08 08:59 37.84311 14.69300 24491 ft 394 kts 206°
2026-05-08 08:59 37.81879 14.67883 24251 ft 378 kts 221°
2026-05-08 08:59 37.79883 14.65814 24035 ft 367 kts 230°
2026-05-08 08:59 37.78073 14.63548 23693 ft 367 kts 231°
2026-05-08 09:00 37.76239 14.61307 23199 ft 366 kts 229°
2026-05-08 09:00 37.74357 14.59163 22665 ft 362 kts 227°
2026-05-08 09:00 37.72449 14.57107 22138 ft 358 kts 226°
2026-05-08 09:00 37.70542 14.55112 21630 ft 355 kts 226°
2026-05-08 09:01 37.68636 14.53141 21128 ft 353 kts 226°
2026-05-08 09:01 37.66741 14.51193 20631 ft 349 kts 226°
2026-05-08 09:01 37.64823 14.49322 20131 ft 352 kts 219°
2026-05-08 09:01 37.62562 14.48027 19656 ft 363 kts 204°
2026-05-08 09:02 37.60023 14.47582 19182 ft 377 kts 188°
2026-05-08 09:02 37.57377 14.48099 18722 ft 392 kts 174°
2026-05-08 09:02 37.54765 14.49040 18278 ft 389 kts 173°
2026-05-08 09:02 37.52189 14.49982 17741 ft 384 kts 173°
2026-05-08 09:03 37.49669 14.50898 17230 ft 380 kts 173°
2026-05-08 09:03 37.47136 14.51807 16703 ft 378 kts 173°
2026-05-08 09:03 37.44620 14.52704 16220 ft 374 kts 173°
2026-05-08 09:03 37.42131 14.53591 15724 ft 370 kts 173°
2026-05-08 09:04 37.39674 14.54464 15235 ft 365 kts 173°
2026-05-08 09:04 37.37249 14.55324 14759 ft 360 kts 173°
2026-05-08 09:04 37.34840 14.56176 14285 ft 359 kts 172°
2026-05-08 09:04 37.32529 14.57464 13823 ft 371 kts 154°
2026-05-08 09:05 37.30619 14.59703 13310 ft 383 kts 133°
2026-05-08 09:05 37.29360 14.62681 12789 ft 391 kts 112°
2026-05-08 09:05 37.28933 14.66059 12283 ft 395 kts 91°
2026-05-08 09:05 37.29398 14.69438 11789 ft 393 kts 70°
2026-05-08 09:06 37.30423 14.72597 11302 ft 390 kts 65°
2026-05-08 09:06 37.31360 14.75568 10851 ft 388 kts 70°
2026-05-08 09:06 37.32164 14.78789 10367 ft 385 kts 75°
2026-05-08 09:06 37.32792 14.82045 9899 ft 381 kts 77°
2026-05-08 09:07 37.33313 14.85299 9388 ft 379 kts 79°
2026-05-08 09:07 37.33785 14.88538 8885 ft 376 kts 80°
2026-05-08 09:07 37.34239 14.91759 8374 ft 372 kts 80°
2026-05-08 09:07 37.34682 14.94917 7881 ft 362 kts 80°
2026-05-08 09:08 37.35114 14.97987 7388 ft 352 kts 80°
2026-05-08 09:08 37.35535 15.00967 6930 ft 342 kts 80°
2026-05-08 09:08 37.35944 15.03867 6492 ft 332 kts 80°
2026-05-08 09:08 37.36339 15.06670 6027 ft 321 kts 79°
2026-05-08 09:09 37.36723 15.09405 5593 ft 313 kts 79°
2026-05-08 09:09 37.37096 15.12069 5152 ft 306 kts 79°
2026-05-08 09:09 37.37460 15.14670 4718 ft 299 kts 79°
2026-05-08 09:09 37.37816 15.17215 4260 ft 292 kts 78°
2026-05-08 09:10 37.38165 15.19701 3815 ft 286 kts 78°
2026-05-08 09:10 37.38508 15.22139 3372 ft 280 kts 79°
2026-05-08 09:10 37.38841 15.24511 3073 ft 269 kts 79°
2026-05-08 09:10 37.39154 15.26757 2970 ft 252 kts 79°
2026-05-08 09:11 37.39449 15.28875 2698 ft 243 kts 79°
2026-05-08 09:11 37.39753 15.30943 2320 ft 238 kts 73°
2026-05-08 09:11 37.40549 15.32679 2048 ft 223 kts 39°
2026-05-08 09:11 37.41840 15.33611 1992 ft 215 kts 11°
2026-05-08 09:12 37.43290 15.33671 1992 ft 208 kts 343°
2026-05-08 09:12 37.44583 15.32919 1993 ft 204 kts 323°
2026-05-08 09:12 37.45774 15.31954 1987 ft 204 kts 324°
2026-05-08 09:12 37.46949 15.31014 1879 ft 206 kts 325°
2026-05-08 09:13 37.48184 15.30005 1741 ft 206 kts 319°
2026-05-08 09:13 37.49046 15.28604 1462 ft 203 kts 289°
2026-05-08 09:13 37.49256 15.27471 1274 ft 200 kts 270°
2026-05-08 09:13 37.49047 15.25759 1049 ft 200 kts 255°
2026-05-08 09:14 37.48705 15.24056 1006 ft 201 kts 256°
2026-05-08 09:14 37.48392 15.22414 993 ft 184 kts 255°
2026-05-08 09:14 37.48118 15.20931 997 ft 165 kts 255°
2026-05-08 09:14 37.47796 15.19186 993 ft 150 kts 255°
2026-05-08 09:15 37.47587 15.17869 995 ft 156 kts 262°
2026-05-08 09:15 37.47518 15.16948 1018 ft 156 kts 263°
2026-05-08 09:15 37.47426 15.15576 971 ft 159 kts 263°
2026-05-08 09:15 37.47310 15.14153 887 ft 179 kts 262°
2026-05-08 09:16 37.47154 15.12535 540 ft 183 kts 263°
2026-05-08 09:16 37.47043 15.11041 362 ft 159 kts 262°
2026-05-08 09:16 37.46934 15.09759 238 ft 137 kts 263°
2026-05-08 09:16 37.46848 15.08649 112 ft 122 kts 261°
2026-05-08 09:17 37.46756 15.07581 26 ft 120 kts 261°
2026-05-08 09:17 37.46680 15.06715 21 ft 77 kts 263°
2026-05-08 09:17 37.46649 15.06396 23 ft 12 kts 274°
2026-05-08 09:17 37.46686 15.06297 22 ft 16 kts 336°
2026-05-08 09:18 37.46759 15.06308 21 ft 1 kts 19°
2026-05-08 09:18 37.46779 15.06317 21 ft 5 kts 19°
2026-05-08 09:18 37.46819 15.06342 21 ft 5 kts 56°
2026-05-08 09:18 37.46825 15.06377 21 ft 5 kts 86°
2026-05-08 09:19 37.46828 15.06443 21 ft 10 kts 86°
2026-05-08 09:19 37.46835 15.06545 21 ft 14 kts 86°
2026-05-08 09:19 37.46847 15.06672 21 ft 7 kts 84°
2026-05-08 09:19 37.46883 15.06687 21 ft 8 kts 353°
2026-05-08 09:20 37.46917 15.06683 23 ft 0 kts 354°
2026-05-08 09:20 37.46922 15.06682 22 ft 0 kts 354°